This is the latest recevied weather packets stored in our database for station/object VE6HFD-WX. If no packets are shown the sender has not sent any weather packets the latest 10 day(s).
| Time | Temp. | Humidity | Pressure | Rain* | Wind** | Luminosity | Snow |
|---|---|---|---|---|---|---|---|
| 1778170086 | 16.11° C | 42% | 1007.9 hPa | 0 mm | - | - | - |
| 1778169756 | 16.11° C | 43% | 1007.9 hPa | 0 mm | - | - | - |
| 1778169426 | 15.56° C | 43% | 1008 hPa | 0 mm | - | - | - |
| 1778169096 | 15.56° C | 44% | 1008 hPa | 0 mm | - | - | - |
| 1778168796 | 15.56° C | 45% | 1008.1 hPa | 0 mm | - | - | - |
| 1778168496 | 15° C | 44% | 1008.2 hPa | 0 mm | - | - | - |
| 1778168196 | 15.56° C | 44% | 1008.1 hPa | 0 mm | - | - | - |
| 1778167866 | 15.56° C | 45% | 1008.1 hPa | 0 mm | - | - | - |
| 1778167566 | 15° C | 46% | 1008.2 hPa | 0 mm | - | - | - |
| 1778167236 | 14.44° C | 49% | 1008.2 hPa | 0 mm | - | - | - |
| 1778166936 | 13.89° C | 53% | 1008.1 hPa | 0 mm | - | - | - |
| 1778166606 | 13.33° C | 54% | 1008.2 hPa | 0 mm | - | - | - |
| 1778166306 | 13.33° C | 54% | 1008.1 hPa | 0 mm | - | - | - |
| 1778165976 | 13.33° C | 57% | 1008.1 hPa | 0 mm | - | - | - |
| 1778165676 | 12.22° C | 62% | 1008 hPa | 0 mm | - | - | - |
| 1778165376 | 11.67° C | 63% | 1008 hPa | 0 mm | - | - | - |
| 1778165046 | 11.67° C | 63% | 1007.9 hPa | 0 mm | - | - | - |
| 1778164716 | 11.67° C | 63% | 1007.8 hPa | 0 mm | - | - | - |
| 1778164416 | 11.67° C | 64% | 1007.8 hPa | 0 mm | - | - | - |
| 1778164086 | 11.67° C | 64% | 1007.8 hPa | 0 mm | - | - | - |
| 1778163756 | 11.11° C | 66% | 1007.7 hPa | 0 mm | - | - | - |
| 1778163456 | 10.56° C | 66% | 1007.7 hPa | 0 mm | - | - | - |
| 1778163156 | 10.56° C | 66% | 1007.7 hPa | 0 mm | - | - | - |
| 1778162826 | 10.56° C | 67% | 1007.7 hPa | 0 mm | - | - | - |
| 1778162526 | 10.56° C | 67% | 1007.7 hPa | 0 mm | - | - | - |
* Rain latest hour (hover to see other rain measurements)
** Current wind speed in m/s (hover to see current wind gust speed)